Regional Weather Roundup
Issued by NWS

Home | Current Version | Previous Version | Text Only | Print | Product List | Glossary Off
Versions: 1 2 3 4 5 6 7 8 9 10 11 12 13 14 15 16 17 18 19 20 21 22 23 24 25 26 27 28 29 30 31 32 33 34 35 36 37 38 39 40 41 42 43 44 45 46 47 48 49 50

000
ASUS43 KFSD 270302
RWRSD

WEATHER ROUNDUP FOR SOUTH DAKOTA
NATIONAL WEATHER SERVICE SIOUX FALLS SD
1000 PM CDT TUE JUL 26 2016

NOTE: "FAIR" INDICATES FEW OR NO CLOUDS BELOW 12,000 FEET WITH NO
SIGNIFICANT WEATHER AND/OR OBSTRUCTIONS TO VISIBILITY.


SDZ001>005-009-010-012>017-270400-
NORTHWEST AND NORTH CENTRAL SOUTH DAKOTA

CITY           SKY/WX    TMP DP  RH WIND       PRES   REMARKS
BUFFALO          N/A     72  61  68 NE20      30.00S
FAITH            N/A     74  61  63 NE13      29.98S
MOBRIDGE       MOCLDY    73  64  73 CALM      29.94S
$$

SDZ012>016-024>037-041>051-057-063-072>074-270400-
SOUTHWEST AND SOUTH CENTRAL SOUTH DAKOTA

CITY           SKY/WX    TMP DP  RH WIND       PRES   REMARKS
RAPID CTY ARPT CLOUDY    74  55  51 N10       30.02R
PIERRE         CLOUDY    71  61  70 S12       29.94R
CUSTER         CLOUDY    64  54  69 N8        30.16R
ELLSWORTH AFB  CLEAR     76  56  50 N6        30.02R
PHILIP         CLOUDY    77  63  61 SE10      29.98R
PINE RIDGE     CLOUDY    67  58  72 SE12G25   29.95F
WINNER         MOCLDY    72  60  66 S39G51    29.90F
$$

SDZ004>011-016>023-039-040-270400-
NORTHEAST SOUTH DAKOTA

CITY           SKY/WX    TMP DP  RH WIND       PRES   REMARKS
ABERDEEN       CLOUDY    72  68  87 NE7       29.96R
WATERTOWN      CLOUDY    72  64  76 E10       29.98R
BROOKINGS      CLOUDY    74  69  85 SE9       29.98R
SISSETON         N/A     68  67  96 CALM      29.96S
$$

SDZ017-020-022-023-036>040-048>070-270400-
SOUTHEAST SOUTH DAKOTA

CITY           SKY/WX    TMP DP  RH WIND       PRES   REMARKS
SIOUX FALLS    CLOUDY    78  65  63 S12       29.98R
HURON          MOCLDY    78  65  63 SE7       29.91R
CHAMBERLAIN    CLOUDY    77  61  57 SW3G23    29.89R
MITCHELL       MOCLDY    82  64  54 S28G39    29.86F
YANKTON        MOCLDY    75  64  69 S10       29.98R
$$

ABBREVIATIONS USED IN REMARKS
   TC - TEMPERATURE IN CELSIUS
  WCI - WIND CHILL INDEX
   HX - HEAT INDEX
  VSB - VISIBILITY





USA.gov is the U.S. government's official web portal to all federal, state and local government web resources and services.